[[{"header":{"parameterUnit":"m.s-1","parameterCategory":1,"la1":30.2992,"la2":30.254,"lo1":-89.0895,"lo2":-89.0443,"dy":0.0025,"dx":0.0025,"nx":19,"ny":19,"refTime":"2026-04-21T21:00:00:Z","depth":0,"parameterNumber":2,"parameterNumberName":"U-component_of_WINDS"},"data":[0,0,0,-3.0174,-3.0176,-3.0276,-3.0276,-3.0414,-3.0415,0,0,0,0,0,0,0,0,0,0,0,-3.0152,-3.0153,-3.0174,-3.0177,-3.0276,-3.0276,-3.0414,-3.0415,0,0,0,0,0,0,0,0,0,0,0,-3.0152,-3.0153,-3.0155,-3.0177,-3.0276,-3.0276,-3.0413,-3.0334,0,0,0,0,0,0,0,0,0,0,-3.0236,-3.0224,-3.0153,-3.0155,-3.0178,-3.0276,-3.0276,-3.033,-3.0339,-3.0374,0,-3.0407,0,-3.0414,-3.0425,-3.0426,0,0,0,-3.0171,-3.0216,-3.0236,-3.0155,-3.0179,-3.0276,-3.0229,-3.0335,-3.0345,-3.0386,-3.0409,-3.0414,-3.0416,-3.0426,-3.0427,-3.0646,-3.0647,0,0,-3.0165,-3.0174,-3.0229,-3.0243,-3.0229,-3.0226,-3.0233,-3.0341,-3.0367,-3.041,-3.0417,-3.0418,-3.0427,-3.0428,-3.0645,-3.0646,0,0,0,-3.0154,-3.0171,-3.0187,-3.0238,-3.0255,-3.0229,-3.0237,-3.0362,-3.0367,-3.0418,-3.042,-3.0428,-3.043,-3.0643,-3.0645,-3.0717,0,0,0,-3.015,-3.0164,-3.0185,-3.0192,-3.0253,-3.031,-3.0255,-3.036,-3.0371,-3.0419,-3.0428,-3.0431,-3.0642,-3.0644,-3.0712,-3.0749,0,0,0,-3.0143,-3.0163,-3.018,-3.0192,-3.0235,-3.0308,-3.0319,-3.0362,-3.0373,-3.0426,-3.0432,-3.0641,-3.0644,-3.0707,-3.0742,-3.0808,0,0,0,-3.0138,-3.0243,-3.0181,-3.0298,-3.0234,-3.0352,-3.0318,-3.0405,-3.046,-3.0429,-3.0642,-3.0645,-3.0706,-3.0737,-3.0804,-3.0866,-3.0892,0,0,-3.0275,-3.026,-3.0328,-3.0275,-3.0406,-3.0336,-3.0477,-3.0519,-3.0516,-3.0602,-3.0608,-3.0714,-3.0741,-3.0807,-3.1041,-3.1063,0,0,0,-3.0374,-3.0423,-3.0455,-3.0507,-3.0541,-3.0573,-3.0592,-3.0607,-3.068,-3.0562,-3.0756,-3.0772,-3.081,-3.0839,-3.0858,-3.0889,-3.0659,-3.0659,-3.0659,-3.0579,-3.0569,-3.0681,-3.0683,-3.0733,-3.0751,-3.0791,-3.0814,-3.079,-3.0836,-3.0861,-3.1004,-3.1039,-3.1052,-3.1085,-3.0894,-3.0894,-3.0894,-3.0894,-3.0778,-3.0845,-3.0809,-3.0904,-3.0893,-3.0972,-3.0993,-3.0973,-3.1044,-3.0985,-3.1018,-3.0953,-3.1076,-3.1104,-3.09,-3.0899,-3.0898,-3.0898,-3.0897,-3.0911,-3.0941,-3.0957,-3.103,-3.1087,-3.1085,-3.1155,-3.1142,-3.1131,-3.1164,-3.1188,-3.1187,-3.1183,-3.1177,-3.1177,-3.1178,-3.1178,-3.1178,-3.1179,-3.1042,-3.1058,-3.1119,-3.1162,-3.1193,-3.1232,-3.125,-3.1279,-3.1309,-3.1294,-3.1294,-3.1264,-3.109,-3.1046,-3.1186,-3.1185,-3.1184,-3.1183,-3.1183,-3.1245,-3.1197,-3.1291,-3.1322,-3.1371,-3.1427,-3.141,-3.1471,-3.1494,-3.1528,-3.1491,-3.1365,-3.1348,-3.1334,-3.1297,-3.1494,-3.1494,-3.1494,-3.1494,-3.1357,-3.1347,-3.1439,-3.1489,-3.1536,-3.1529,-3.1634,-3.1648,-3.1655,-3.1668,-3.1638,-3.1589,-3.1574,-3.1566,-3.1546,-3.1512,-3.1759,-3.1759,-3.176,-3.1481,-3.1475,-3.1567,-3.1573,-3.161,-3.1642,-3.174,-3.1797,-3.1795,-3.177,-3.1678,-3.1667,-3.1587,-3.1561,-3.1534,-3.1504,-3.144,0,0]},{"header":{"parameterUnit":"m.s-1","parameterCategory":1,"la1":30.2992,"la2":30.254,"lo1":-89.0895,"lo2":-89.0443,"dy":0.0025,"dx":0.0025,"nx":19,"ny":19,"refTime":"2026-04-21T21:00:00:Z","depth":0,"parameterNumber":3,"parameterNumberName":"V-component_of_WINDS"},"data":[0,0,0,1.5675,1.5674,1.5614,1.5613,1.556,1.556,0,0,0,0,0,0,0,0,0,0,0,1.571,1.571,1.5675,1.5674,1.5614,1.5613,1.556,1.556,0,0,0,0,0,0,0,0,0,0,0,1.5709,1.571,1.571,1.5674,1.5614,1.5613,1.556,1.5597,0,0,0,0,0,0,0,0,0,0,1.5651,1.57,1.571,1.571,1.5674,1.5614,1.5613,1.5598,1.5594,1.5599,0,1.5609,0,1.5584,1.5558,1.5558,0,0,0,1.5661,1.5703,1.5672,1.571,1.5673,1.5614,1.5637,1.5596,1.5592,1.5594,1.5608,1.5605,1.5583,1.5558,1.5558,1.5632,1.5633,0,0,1.5664,1.5707,1.5675,1.567,1.5684,1.5639,1.5635,1.5593,1.561,1.5608,1.5603,1.5582,1.5558,1.5558,1.5631,1.5633,0,0,0,1.5683,1.571,1.5679,1.5673,1.5661,1.5638,1.5633,1.5612,1.5598,1.5603,1.5582,1.5558,1.5557,1.563,1.5632,1.5723,0,0,0,1.5684,1.5721,1.5681,1.5707,1.5662,1.5636,1.5654,1.5601,1.5595,1.5582,1.5558,1.5557,1.5629,1.5631,1.5718,1.5758,0,0,0,1.5708,1.5723,1.5721,1.571,1.5686,1.5635,1.5619,1.5599,1.5583,1.5558,1.5557,1.5628,1.5631,1.5713,1.575,1.579,0,0,0,1.5745,1.5801,1.5723,1.5777,1.5687,1.5693,1.5619,1.5621,1.5611,1.5558,1.5629,1.5632,1.5712,1.5746,1.5786,1.5831,1.5854,0,0,1.584,1.5814,1.5842,1.5771,1.5803,1.5699,1.5743,1.5691,1.5648,1.564,1.5641,1.5719,1.575,1.5789,1.597,1.5989,0,0,0,1.5887,1.5908,1.5907,1.5901,1.5864,1.5836,1.5773,1.5754,1.5745,1.5654,1.5743,1.576,1.5781,1.5801,1.5817,1.5832,1.5643,1.5643,1.5642,1.6082,1.6026,1.6069,1.6006,1.6001,1.5937,1.5926,1.5889,1.5832,1.5855,1.5852,1.5969,1.5993,1.6005,1.6022,1.5872,1.5872,1.5872,1.5872,1.6214,1.6235,1.6161,1.6176,1.6116,1.6127,1.6068,1.6028,1.6028,1.5966,1.5982,1.5918,1.6028,1.6039,1.5879,1.5878,1.5877,1.5876,1.5876,1.6335,1.6335,1.6313,1.6298,1.6293,1.6227,1.6232,1.6176,1.6124,1.6139,1.613,1.6128,1.6119,1.6139,1.6139,1.614,1.614,1.614,1.6141,1.6469,1.644,1.6453,1.642,1.6409,1.6387,1.6325,1.6311,1.6282,1.6241,1.6241,1.6182,1.6049,1.6017,1.6147,1.6146,1.6145,1.6144,1.6144,1.6622,1.6579,1.6598,1.6588,1.6545,1.6543,1.6473,1.6452,1.6432,1.6437,1.6375,1.6286,1.6255,1.6242,1.6214,1.6387,1.6387,1.6387,1.6387,1.6724,1.6703,1.6711,1.6697,1.6677,1.6617,1.6638,1.659,1.6533,1.6517,1.6484,1.6444,1.6433,1.6408,1.6391,1.6365,1.6572,1.6572,1.6572,1.6815,1.679,1.682,1.6766,1.6729,1.6698,1.6717,1.6702,1.6628,1.6579,1.6504,1.6496,1.643,1.6411,1.6359,1.6334,1.6284,0,0]}]]